Location: Unspecified
(0.0000°N, 0.0000°E)
Time: 01:27:31
(UTC+00:00)

Envisat - Pass Details

Date: 23 June 2022
Orbit: 764 x 765 km, 98.2° (Epoch: 28 June)

Event Time Altitude Azimuth Distance (km) Brightness Sun altitude
Rises 04:15:44 0° 8° (N) 3,212 6.7 -24.3°
Reaches altitude 10° 04:18:02 10° 6° (N) 2,289 5.8 -23.8°
Maximum altitude 04:23:03 71° 282° (WNW) 804 2.9 -22.6°
Enters shadow 04:24:21 49° 216° (SW) 978 3.1 -22.3°
